Location: Presov
(49.0000°N, 21.2500°E)
Time: 23:13:33
(UTC+02:00)

Transit 2A Rocket - Pass Details

Date: 21 April 2021
Orbit: 594 x 908 km, 66.7° (Epoch: 05 May)

Event Time Altitude Azimuth Distance (km) Brightness Sun altitude
Rises 00:50:48 0° 318° (NW) 2,883 8.6 -29.0°
Reaches altitude 10° 00:53:06 10° 310° (NW) 2,001 7.5 -29.0°
Enters shadow 00:54:44 21° 298° (WNW) 1,445 6.6 -29.0°
Maximum altitude 00:57:15 38° 243° (WSW) 999 - -28.9°
Drops below altitude 10° 01:01:41 10° 176° (S) 2,132 - -28.8°
Sets 01:04:13 0° 168° (SSE) 3,099 - -28.8°
